owner,sensor,date,latitude,longitude,vertical_datum,sea_water_temperature,qcFlag 
DISL,ioos:station:DISL:DISL:1,2015-02-01T00:00:00Z,30.2513,-88.0778,-1.72,14.5,2 
DISL,ioos:station:DISL:DISL:1,2015-02-01T00:30:00Z,30.2513,-88.0778,-1.72,14.32,2 
DISL,ioos:station:DISL:DISL:1,2015-02-01T01:00:00Z,30.2513,-88.0778,-1.72,14.29,2 
DISL,ioos:station:DISL:DISL:1,2015-02-01T01:30:00Z,30.2513,-88.0778,-1.72,13.83,2 
DISL,ioos:station:DISL:DISL:1,2015-02-01T02:00:00Z,30.2513,-88.0778,-1.72,14.14,2 
DISL,ioos:station:DISL:DISL:1,2015-02-01T02:30:00Z,30.2513,-88.0778,-1.72,14.19,2 
DISL,ioos:station:DISL:DISL:1,2015-02-01T03:00:00Z,30.2513,-88.0778,-1.72,12.83,2 
DISL,ioos:station:DISL:DISL:1,2015-02-01T03:30:00Z,30.2513,-88.0778,-1.72,12.35,2 
DISL,ioos:station:DISL:DISL:1,2015-02-01T04:00:00Z,30.2513,-88.0778,-1.72,12.16,2 
DISL,ioos:station:DISL:DISL:1,2015-02-01T04:30:00Z,30.2513,-88.0778,-1.72,11.99,2 
DISL,ioos:station:DISL:DISL:1,2015-02-01T05:00:00Z,30.2513,-88.0778,-1.72,12.09,2 
DISL,ioos:station:DISL:DISL:1,2015-02-01T05:30:00Z,30.2513,-88.0778,-1.72,12.04,2 
DISL,ioos:station:DISL:DISL:1,2015-02-01T06:00:00Z,30.2513,-88.0778,-1.72,12.34,2 
DISL,ioos:station:DISL:DISL:1,2015-02-01T06:30:00Z,30.2513,-88.0778,-1.72,12.27,2 
DISL,ioos:station:DISL:DISL:1,2015-02-01T07:00:00Z,30.2513,-88.0778,-1.72,12.27,2 
DISL,ioos:station:DISL:DISL:1,2015-02-01T07:30:00Z,30.2513,-88.0778,-1.72,12.2,2 
DISL,ioos:station:DISL:DISL:1,2015-02-01T08:00:00Z,30.2513,-88.0778,-1.72,12.21,2 
DISL,ioos:station:DISL:DISL:1,2015-02-01T08:30:00Z,30.2513,-88.0778,-1.72,12.17,2 
DISL,ioos:station:DISL:DISL:1,2015-02-01T09:00:00Z,30.2513,-88.0778,-1.72,12.16,2 
DISL,ioos:station:DISL:DISL:1,2015-02-01T09:30:00Z,30.2513,-88.0778,-1.72,12.15,2 
DISL,ioos:station:DISL:DISL:1,2015-02-01T10:00:00Z,30.2513,-88.0778,-1.72,12.02,2 
DISL,ioos:station:DISL:DISL:1,2015-02-01T10:30:00Z,30.2513,-88.0778,-1.72,11.89,2 
DISL,ioos:station:DISL:DISL:1,2015-02-01T11:00:00Z,30.2513,-88.0778,-1.72,12.03,2 
DISL,ioos:station:DISL:DISL:1,2015-02-01T11:30:00Z,30.2513,-88.0778,-1.72,12.15,2 
DISL,ioos:station:DISL:DISL:1,2015-02-01T12:00:00Z,30.2513,-88.0778,-1.72,12.16,2 
DISL,ioos:station:DISL:DISL:1,2015-02-01T12:30:00Z,30.2513,-88.0778,-1.72,12.16,2 
DISL,ioos:station:DISL:DISL:1,2015-02-01T13:00:00Z,30.2513,-88.0778,-1.72,12.16,2 
DISL,ioos:station:DISL:DISL:1,2015-02-01T13:30:00Z,30.2513,-88.0778,-1.72,12.1,2 
DISL,ioos:station:DISL:DISL:1,2015-02-01T14:00:00Z,30.2513,-88.0778,-1.72,12.21,2 
DISL,ioos:station:DISL:DISL:1,2015-02-01T14:30:00Z,30.2513,-88.0778,-1.72,12.19,2 
DISL,ioos:station:DISL:DISL:1,2015-02-01T15:00:00Z,30.2513,-88.0778,-1.72,12.21,2 
DISL,ioos:station:DISL:DISL:1,2015-02-01T15:30:00Z,30.2513,-88.0778,-1.72,12.65,2 
DISL,ioos:station:DISL:DISL:1,2015-02-01T16:00:00Z,30.2513,-88.0778,-1.72,12.84,2 
DISL,ioos:station:DISL:DISL:1,2015-02-01T16:30:00Z,30.2513,-88.0778,-1.72,12.84,2 
DISL,ioos:station:DISL:DISL:1,2015-02-01T17:00:00Z,30.2513,-88.0778,-1.72,12.86,2 
DISL,ioos:station:DISL:DISL:1,2015-02-01T17:30:00Z,30.2513,-88.0778,-1.72,12.88,2 
DISL,ioos:station:DISL:DISL:1,2015-02-01T18:00:00Z,30.2513,-88.0778,-1.72,12.83,2 
DISL,ioos:station:DISL:DISL:1,2015-02-01T18:30:00Z,30.2513,-88.0778,-1.72,12.63,2 
DISL,ioos:station:DISL:DISL:1,2015-02-01T19:00:00Z,30.2513,-88.0778,-1.72,12.68,2 
DISL,ioos:station:DISL:DISL:1,2015-02-01T19:30:00Z,30.2513,-88.0778,-1.72,12.91,2 
DISL,ioos:station:DISL:DISL:1,2015-02-01T20:00:00Z,30.2513,-88.0778,-1.72,12.96,2 
DISL,ioos:station:DISL:DISL:1,2015-02-01T20:30:00Z,30.2513,-88.0778,-1.72,13.79,2 
DISL,ioos:station:DISL:DISL:1,2015-02-01T21:00:00Z,30.2513,-88.0778,-1.72,14.24,2 
DISL,ioos:station:DISL:DISL:1,2015-02-01T21:30:00Z,30.2513,-88.0778,-1.72,14.13,2 
DISL,ioos:station:DISL:DISL:1,2015-02-01T22:00:00Z,30.2513,-88.0778,-1.72,14.32,2 
DISL,ioos:station:DISL:DISL:1,2015-02-01T22:30:00Z,30.2513,-88.0778,-1.72,14.47,2 
DISL,ioos:station:DISL:DISL:1,2015-02-01T23:00:00Z,30.2513,-88.0778,-1.72,14.48,2 
DISL,ioos:station:DISL:DISL:1,2015-02-01T23:30:00Z,30.2513,-88.0778,-1.72,14.45,2 
DISL,ioos:station:DISL:DISL:1,2015-02-02T00:00:00Z,30.2513,-88.0778,-1.72,14.59,2 
DISL,ioos:station:DISL:DISL:1,2015-02-02T00:30:00Z,30.2513,-88.0778,-1.72,14.62,2 
DISL,ioos:station:DISL:DISL:1,2015-02-02T01:00:00Z,30.2513,-88.0778,-1.72,14.63,2 
DISL,ioos:station:DISL:DISL:1,2015-02-02T01:30:00Z,30.2513,-88.0778,-1.72,14.58,2 
DISL,ioos:station:DISL:DISL:1,2015-02-02T02:00:00Z,30.2513,-88.0778,-1.72,14.58,2 
DISL,ioos:station:DISL:DISL:1,2015-02-02T02:30:00Z,30.2513,-88.0778,-1.72,14.49,2 
DISL,ioos:station:DISL:DISL:1,2015-02-02T03:00:00Z,30.2513,-88.0778,-1.72,14.5,2 
DISL,ioos:station:DISL:DISL:1,2015-02-02T03:30:00Z,30.2513,-88.0778,-1.72,14.39,2 
DISL,ioos:station:DISL:DISL:1,2015-02-02T04:00:00Z,30.2513,-88.0778,-1.72,14.3,2 
DISL,ioos:station:DISL:DISL:1,2015-02-02T04:30:00Z,30.2513,-88.0778,-1.72,13.8,2 
DISL,ioos:station:DISL:DISL:1,2015-02-02T05:00:00Z,30.2513,-88.0778,-1.72,13.45,2 
DISL,ioos:station:DISL:DISL:1,2015-02-02T05:30:00Z,30.2513,-88.0778,-1.72,13.34,2 
DISL,ioos:station:DISL:DISL:1,2015-02-02T06:00:00Z,30.2513,-88.0778,-1.72,13.31,2 
DISL,ioos:station:DISL:DISL:1,2015-02-02T06:30:00Z,30.2513,-88.0778,-1.72,13.31,2 
DISL,ioos:station:DISL:DISL:1,2015-02-02T07:00:00Z,30.2513,-88.0778,-1.72,13.38,2 
DISL,ioos:station:DISL:DISL:1,2015-02-02T07:30:00Z,30.2513,-88.0778,-1.72,13.33,2 
DISL,ioos:station:DISL:DISL:1,2015-02-02T08:00:00Z,30.2513,-88.0778,-1.72,13.35,2 
DISL,ioos:station:DISL:DISL:1,2015-02-02T08:30:00Z,30.2513,-88.0778,-1.72,13.41,2 
DISL,ioos:station:DISL:DISL:1,2015-02-02T09:00:00Z,30.2513,-88.0778,-1.72,13.39,2 
DISL,ioos:station:DISL:DISL:1,2015-02-02T09:30:00Z,30.2513,-88.0778,-1.72,13.37,2 
DISL,ioos:station:DISL:DISL:1,2015-02-02T10:00:00Z,30.2513,-88.0778,-1.72,13.34,2 
DISL,ioos:station:DISL:DISL:1,2015-02-02T10:30:00Z,30.2513,-88.0778,-1.72,13.33,2 
DISL,ioos:station:DISL:DISL:1,2015-02-02T11:00:00Z,30.2513,-88.0778,-1.72,13.2,2 
DISL,ioos:station:DISL:DISL:1,2015-02-02T11:30:00Z,30.2513,-88.0778,-1.72,13.08,2 
DISL,ioos:station:DISL:DISL:1,2015-02-02T12:00:00Z,30.2513,-88.0778,-1.72,12.94,2 
DISL,ioos:station:DISL:DISL:1,2015-02-02T12:30:00Z,30.2513,-88.0778,-1.72,12.89,2 
DISL,ioos:station:DISL:DISL:1,2015-02-02T13:00:00Z,30.2513,-88.0778,-1.72,12.58,2 
DISL,ioos:station:DISL:DISL:1,2015-02-02T13:30:00Z,30.2513,-88.0778,-1.72,12.64,2 
DISL,ioos:station:DISL:DISL:1,2015-02-02T14:00:00Z,30.2513,-88.0778,-1.72,11.97,2 
DISL,ioos:station:DISL:DISL:1,2015-02-02T14:30:00Z,30.2513,-88.0778,-1.72,12.18,2 
DISL,ioos:station:DISL:DISL:1,2015-02-02T15:00:00Z,30.2513,-88.0778,-1.72,11.91,2 
DISL,ioos:station:DISL:DISL:1,2015-02-02T15:30:00Z,30.2513,-88.0778,-1.72,12.12,2 
DISL,ioos:station:DISL:DISL:1,2015-02-02T16:00:00Z,30.2513,-88.0778,-1.72,12.4,2 
DISL,ioos:station:DISL:DISL:1,2015-02-02T16:30:00Z,30.2513,-88.0778,-1.72,12.18,2 
DISL,ioos:station:DISL:DISL:1,2015-02-02T17:00:00Z,30.2513,-88.0778,-1.72,12.2,2 
DISL,ioos:station:DISL:DISL:1,2015-02-02T17:30:00Z,30.2513,-88.0778,-1.72,12.29,2 
DISL,ioos:station:DISL:DISL:1,2015-02-02T18:00:00Z,30.2513,-88.0778,-1.72,12.26,2 
DISL,ioos:station:DISL:DISL:1,2015-02-02T18:30:00Z,30.2513,-88.0778,-1.72,12.52,2 
DISL,ioos:station:DISL:DISL:1,2015-02-02T19:00:00Z,30.2513,-88.0778,-1.72,12.5,2 
DISL,ioos:station:DISL:DISL:1,2015-02-02T19:30:00Z,30.2513,-88.0778,-1.72,12.53,2 
DISL,ioos:station:DISL:DISL:1,2015-02-02T20:00:00Z,30.2513,-88.0778,-1.72,12.57,2 
DISL,ioos:station:DISL:DISL:1,2015-02-02T20:30:00Z,30.2513,-88.0778,-1.72,12.83,2 
DISL,ioos:station:DISL:DISL:1,2015-02-02T21:00:00Z,30.2513,-88.0778,-1.72,13.16,2 
DISL,ioos:station:DISL:DISL:1,2015-02-02T21:30:00Z,30.2513,-88.0778,-1.72,13.11,2 
DISL,ioos:station:DISL:DISL:1,2015-02-02T22:00:00Z,30.2513,-88.0778,-1.72,13.07,2 
DISL,ioos:station:DISL:DISL:1,2015-02-02T22:30:00Z,30.2513,-88.0778,-1.72,13.44,2 
DISL,ioos:station:DISL:DISL:1,2015-02-02T23:00:00Z,30.2513,-88.0778,-1.72,13.24,2 
DISL,ioos:station:DISL:DISL:1,2015-02-02T23:30:00Z,30.2513,-88.0778,-1.72,13.18,2 
DISL,ioos:station:DISL:DISL:1,2015-02-03T00:00:00Z,30.2513,-88.0778,-1.72,13.55,2 
DISL,ioos:station:DISL:DISL:1,2015-02-03T00:30:00Z,30.2513,-88.0778,-1.72,13.99,2 
DISL,ioos:station:DISL:DISL:1,2015-02-03T01:00:00Z,30.2513,-88.0778,-1.72,14.38,2 
DISL,ioos:station:DISL:DISL:1,2015-02-03T01:30:00Z,30.2513,-88.0778,-1.72,14.25,2 
DISL,ioos:station:DISL:DISL:1,2015-02-03T02:00:00Z,30.2513,-88.0778,-1.72,14.48,2 
DISL,ioos:station:DISL:DISL:1,2015-02-03T02:30:00Z,30.2513,-88.0778,-1.72,14.57,2 
DISL,ioos:station:DISL:DISL:1,2015-02-03T03:00:00Z,30.2513,-88.0778,-1.72,13.84,2 
DISL,ioos:station:DISL:DISL:1,2015-02-03T03:30:00Z,30.2513,-88.0778,-1.72,12.06,2 
DISL,ioos:station:DISL:DISL:1,2015-02-03T04:00:00Z,30.2513,-88.0778,-1.72,11.72,2 
DISL,ioos:station:DISL:DISL:1,2015-02-03T04:30:00Z,30.2513,-88.0778,-1.72,11.58,2 
DISL,ioos:station:DISL:DISL:1,2015-02-03T05:00:00Z,30.2513,-88.0778,-1.72,11.45,2 
DISL,ioos:station:DISL:DISL:1,2015-02-03T05:30:00Z,30.2513,-88.0778,-1.72,11.4,2 
DISL,ioos:station:DISL:DISL:1,2015-02-03T06:00:00Z,30.2513,-88.0778,-1.72,10.93,2 
DISL,ioos:station:DISL:DISL:1,2015-02-03T06:30:00Z,30.2513,-88.0778,-1.72,10.94,2 
DISL,ioos:station:DISL:DISL:1,2015-02-03T07:00:00Z,30.2513,-88.0778,-1.72,11.02,2 
DISL,ioos:station:DISL:DISL:1,2015-02-03T07:30:00Z,30.2513,-88.0778,-1.72,11.01,2 
DISL,ioos:station:DISL:DISL:1,2015-02-03T08:00:00Z,30.2513,-88.0778,-1.72,10.97,2 
DISL,ioos:station:DISL:DISL:1,2015-02-03T08:30:00Z,30.2513,-88.0778,-1.72,11.03,2 
DISL,ioos:station:DISL:DISL:1,2015-02-03T09:00:00Z,30.2513,-88.0778,-1.72,10.96,2 
DISL,ioos:station:DISL:DISL:1,2015-02-03T09:30:00Z,30.2513,-88.0778,-1.72,10.93,2 
DISL,ioos:station:DISL:DISL:1,2015-02-03T10:00:00Z,30.2513,-88.0778,-1.72,10.87,2 
DISL,ioos:station:DISL:DISL:1,2015-02-03T10:30:00Z,30.2513,-88.0778,-1.72,10.8,2 
DISL,ioos:station:DISL:DISL:1,2015-02-03T11:00:00Z,30.2513,-88.0778,-1.72,10.77,2 
DISL,ioos:station:DISL:DISL:1,2015-02-03T11:30:00Z,30.2513,-88.0778,-1.72,10.74,2 
DISL,ioos:station:DISL:DISL:1,2015-02-03T12:00:00Z,30.2513,-88.0778,-1.72,10.82,2 
DISL,ioos:station:DISL:DISL:1,2015-02-03T12:30:00Z,30.2513,-88.0778,-1.72,10.83,2 
DISL,ioos:station:DISL:DISL:1,2015-02-03T13:00:00Z,30.2513,-88.0778,-1.72,10.99,2 
DISL,ioos:station:DISL:DISL:1,2015-02-03T13:30:00Z,30.2513,-88.0778,-1.72,10.99,2 
DISL,ioos:station:DISL:DISL:1,2015-02-03T14:00:00Z,30.2513,-88.0778,-1.72,10.9,2 
DISL,ioos:station:DISL:DISL:1,2015-02-03T14:30:00Z,30.2513,-88.0778,-1.72,10.85,2 
DISL,ioos:station:DISL:DISL:1,2015-02-03T15:00:00Z,30.2513,-88.0778,-1.72,11.12,2 
DISL,ioos:station:DISL:DISL:1,2015-02-03T15:30:00Z,30.2513,-88.0778,-1.72,11.28,2 
DISL,ioos:station:DISL:DISL:1,2015-02-03T16:00:00Z,30.2513,-88.0778,-1.72,11.2,2 
DISL,ioos:station:DISL:DISL:1,2015-02-03T16:30:00Z,30.2513,-88.0778,-1.72,11.0,2 
DISL,ioos:station:DISL:DISL:1,2015-02-03T17:00:00Z,30.2513,-88.0778,-1.72,11.05,2 
DISL,ioos:station:DISL:DISL:1,2015-02-03T17:30:00Z,30.2513,-88.0778,-1.72,11.18,2 
DISL,ioos:station:DISL:DISL:1,2015-02-03T18:00:00Z,30.2513,-88.0778,-1.72,10.91,2 
DISL,ioos:station:DISL:DISL:1,2015-02-03T18:30:00Z,30.2513,-88.0778,-1.72,10.94,2 
DISL,ioos:station:DISL:DISL:1,2015-02-03T19:00:00Z,30.2513,-88.0778,-1.72,10.97,2 
DISL,ioos:station:DISL:DISL:1,2015-02-03T19:30:00Z,30.2513,-88.0778,-1.72,10.96,2 
DISL,ioos:station:DISL:DISL:1,2015-02-03T20:00:00Z,30.2513,-88.0778,-1.72,11.1,2 
DISL,ioos:station:DISL:DISL:1,2015-02-03T20:30:00Z,30.2513,-88.0778,-1.72,11.21,2 
DISL,ioos:station:DISL:DISL:1,2015-02-03T21:00:00Z,30.2513,-88.0778,-1.72,11.68,2 
DISL,ioos:station:DISL:DISL:1,2015-02-03T21:30:00Z,30.2513,-88.0778,-1.72,12.43,2 
DISL,ioos:station:DISL:DISL:1,2015-02-03T22:00:00Z,30.2513,-88.0778,-1.72,12.75,2 
DISL,ioos:station:DISL:DISL:1,2015-02-03T22:30:00Z,30.2513,-88.0778,-1.72,13.19,2 
DISL,ioos:station:DISL:DISL:1,2015-02-03T23:00:00Z,30.2513,-88.0778,-1.72,13.69,2 
DISL,ioos:station:DISL:DISL:1,2015-02-03T23:30:00Z,30.2513,-88.0778,-1.72,13.16,2 
DISL,ioos:station:DISL:DISL:1,2015-02-04T00:00:00Z,30.2513,-88.0778,-1.72,13.47,2 
DISL,ioos:station:DISL:DISL:1,2015-02-04T00:30:00Z,30.2513,-88.0778,-1.72,14.08,2 
DISL,ioos:station:DISL:DISL:1,2015-02-04T01:00:00Z,30.2513,-88.0778,-1.72,14.15,2 
DISL,ioos:station:DISL:DISL:1,2015-02-04T01:30:00Z,30.2513,-88.0778,-1.72,14.13,2 
DISL,ioos:station:DISL:DISL:1,2015-02-04T02:00:00Z,30.2513,-88.0778,-1.72,14.08,2 
DISL,ioos:station:DISL:DISL:1,2015-02-04T02:30:00Z,30.2513,-88.0778,-1.72,13.89,2 
DISL,ioos:station:DISL:DISL:1,2015-02-04T03:00:00Z,30.2513,-88.0778,-1.72,13.68,2 
DISL,ioos:station:DISL:DISL:1,2015-02-04T03:30:00Z,30.2513,-88.0778,-1.72,11.87,2 
DISL,ioos:station:DISL:DISL:1,2015-02-04T04:00:00Z,30.2513,-88.0778,-1.72,12.12,2 
DISL,ioos:station:DISL:DISL:1,2015-02-04T04:30:00Z,30.2513,-88.0778,-1.72,10.09,2 
DISL,ioos:station:DISL:DISL:1,2015-02-04T05:00:00Z,30.2513,-88.0778,-1.72,9.82,2 
DISL,ioos:station:DISL:DISL:1,2015-02-04T05:30:00Z,30.2513,-88.0778,-1.72,9.8,2 
DISL,ioos:station:DISL:DISL:1,2015-02-04T06:00:00Z,30.2513,-88.0778,-1.72,9.77,2 
DISL,ioos:station:DISL:DISL:1,2015-02-04T06:30:00Z,30.2513,-88.0778,-1.72,9.63,2 
DISL,ioos:station:DISL:DISL:1,2015-02-04T07:00:00Z,30.2513,-88.0778,-1.72,9.57,2 
DISL,ioos:station:DISL:DISL:1,2015-02-04T07:30:00Z,30.2513,-88.0778,-1.72,9.67,2 
DISL,ioos:station:DISL:DISL:1,2015-02-04T08:00:00Z,30.2513,-88.0778,-1.72,10.03,2 
DISL,ioos:station:DISL:DISL:1,2015-02-04T08:30:00Z,30.2513,-88.0778,-1.72,10.03,2 
DISL,ioos:station:DISL:DISL:1,2015-02-04T09:00:00Z,30.2513,-88.0778,-1.72,10.03,2 
DISL,ioos:station:DISL:DISL:1,2015-02-04T09:30:00Z,30.2513,-88.0778,-1.72,9.99,2 
DISL,ioos:station:DISL:DISL:1,2015-02-04T10:00:00Z,30.2513,-88.0778,-1.72,9.98,2 
DISL,ioos:station:DISL:DISL:1,2015-02-04T10:30:00Z,30.2513,-88.0778,-1.72,9.92,2 
DISL,ioos:station:DISL:DISL:1,2015-02-04T11:00:00Z,30.2513,-88.0778,-1.72,9.86,2 
DISL,ioos:station:DISL:DISL:1,2015-02-04T11:30:00Z,30.2513,-88.0778,-1.72,9.82,2 
DISL,ioos:station:DISL:DISL:1,2015-02-04T12:00:00Z,30.2513,-88.0778,-1.72,9.84,2 
DISL,ioos:station:DISL:DISL:1,2015-02-04T12:30:00Z,30.2513,-88.0778,-1.72,9.86,2 
DISL,ioos:station:DISL:DISL:1,2015-02-04T13:00:00Z,30.2513,-88.0778,-1.72,9.88,2 
DISL,ioos:station:DISL:DISL:1,2015-02-04T13:30:00Z,30.2513,-88.0778,-1.72,10.0,2 
DISL,ioos:station:DISL:DISL:1,2015-02-04T14:00:00Z,30.2513,-88.0778,-1.72,10.06,2 
DISL,ioos:station:DISL:DISL:1,2015-02-04T14:30:00Z,30.2513,-88.0778,-1.72,10.17,2 
DISL,ioos:station:DISL:DISL:1,2015-02-04T15:00:00Z,30.2513,-88.0778,-1.72,10.22,2 
DISL,ioos:station:DISL:DISL:1,2015-02-04T15:30:00Z,30.2513,-88.0778,-1.72,10.42,2 
DISL,ioos:station:DISL:DISL:1,2015-02-04T16:00:00Z,30.2513,-88.0778,-1.72,10.36,2 
DISL,ioos:station:DISL:DISL:1,2015-02-04T16:30:00Z,30.2513,-88.0778,-1.72,10.45,2 
DISL,ioos:station:DISL:DISL:1,2015-02-04T17:00:00Z,30.2513,-88.0778,-1.72,10.53,2 
DISL,ioos:station:DISL:DISL:1,2015-02-04T17:30:00Z,30.2513,-88.0778,-1.72,10.61,2 
DISL,ioos:station:DISL:DISL:1,2015-02-04T18:00:00Z,30.2513,-88.0778,-1.72,10.81,2 
DISL,ioos:station:DISL:DISL:1,2015-02-04T18:30:00Z,30.2513,-88.0778,-1.72,10.77,2 
DISL,ioos:station:DISL:DISL:1,2015-02-04T19:00:00Z,30.2513,-88.0778,-1.72,10.68,2 
DISL,ioos:station:DISL:DISL:1,2015-02-04T19:30:00Z,30.2513,-88.0778,-1.72,10.6,2 
DISL,ioos:station:DISL:DISL:1,2015-02-04T20:00:00Z,30.2513,-88.0778,-1.72,10.52,2 
DISL,ioos:station:DISL:DISL:1,2015-02-04T20:30:00Z,30.2513,-88.0778,-1.72,10.35,2 
DISL,ioos:station:DISL:DISL:1,2015-02-04T21:00:00Z,30.2513,-88.0778,-1.72,10.19,2 
DISL,ioos:station:DISL:DISL:1,2015-02-04T21:30:00Z,30.2513,-88.0778,-1.72,10.65,2 
DISL,ioos:station:DISL:DISL:1,2015-02-04T22:00:00Z,30.2513,-88.0778,-1.72,10.58,2 
DISL,ioos:station:DISL:DISL:1,2015-02-04T22:30:00Z,30.2513,-88.0778,-1.72,10.47,2 
DISL,ioos:station:DISL:DISL:1,2015-02-04T23:00:00Z,30.2513,-88.0778,-1.72,10.71,2 
DISL,ioos:station:DISL:DISL:1,2015-02-04T23:30:00Z,30.2513,-88.0778,-1.72,10.82,2 
DISL,ioos:station:DISL:DISL:1,2015-02-05T00:00:00Z,30.2513,-88.0778,-1.72,11.71,2 
DISL,ioos:station:DISL:DISL:1,2015-02-05T00:30:00Z,30.2513,-88.0778,-1.72,12.51,2 
DISL,ioos:station:DISL:DISL:1,2015-02-05T01:00:00Z,30.2513,-88.0778,-1.72,12.62,2 
DISL,ioos:station:DISL:DISL:1,2015-02-05T01:30:00Z,30.2513,-88.0778,-1.72,12.24,2 
DISL,ioos:station:DISL:DISL:1,2015-02-05T02:00:00Z,30.2513,-88.0778,-1.72,12.13,2 
DISL,ioos:station:DISL:DISL:1,2015-02-05T02:30:00Z,30.2513,-88.0778,-1.72,11.78,2 
DISL,ioos:station:DISL:DISL:1,2015-02-05T03:00:00Z,30.2513,-88.0778,-1.72,11.75,2 
DISL,ioos:station:DISL:DISL:1,2015-02-05T03:30:00Z,30.2513,-88.0778,-1.72,11.78,2 
DISL,ioos:station:DISL:DISL:1,2015-02-05T04:00:00Z,30.2513,-88.0778,-1.72,11.78,2 
DISL,ioos:station:DISL:DISL:1,2015-02-05T04:30:00Z,30.2513,-88.0778,-1.72,11.11,2 
DISL,ioos:station:DISL:DISL:1,2015-02-05T05:00:00Z,30.2513,-88.0778,-1.72,10.45,2 
DISL,ioos:station:DISL:DISL:1,2015-02-05T05:30:00Z,30.2513,-88.0778,-1.72,10.2,2 
DISL,ioos:station:DISL:DISL:1,2015-02-05T06:00:00Z,30.2513,-88.0778,-1.72,10.09,2 
DISL,ioos:station:DISL:DISL:1,2015-02-05T06:30:00Z,30.2513,-88.0778,-1.72,10.0,2 
DISL,ioos:station:DISL:DISL:1,2015-02-05T07:00:00Z,30.2513,-88.0778,-1.72,9.95,2 
DISL,ioos:station:DISL:DISL:1,2015-02-05T07:30:00Z,30.2513,-88.0778,-1.72,9.55,2 
DISL,ioos:station:DISL:DISL:1,2015-02-05T08:00:00Z,30.2513,-88.0778,-1.72,9.59,2 
DISL,ioos:station:DISL:DISL:1,2015-02-05T08:30:00Z,30.2513,-88.0778,-1.72,9.59,2 
DISL,ioos:station:DISL:DISL:1,2015-02-05T09:00:00Z,30.2513,-88.0778,-1.72,9.87,2 
DISL,ioos:station:DISL:DISL:1,2015-02-05T09:30:00Z,30.2513,-88.0778,-1.72,9.56,2 
DISL,ioos:station:DISL:DISL:1,2015-02-05T10:00:00Z,30.2513,-88.0778,-1.72,9.38,2 
DISL,ioos:station:DISL:DISL:1,2015-02-05T10:30:00Z,30.2513,-88.0778,-1.72,9.43,2 
DISL,ioos:station:DISL:DISL:1,2015-02-05T11:00:00Z,30.2513,-88.0778,-1.72,9.32,2 
DISL,ioos:station:DISL:DISL:1,2015-02-05T11:30:00Z,30.2513,-88.0778,-1.72,9.24,2 
DISL,ioos:station:DISL:DISL:1,2015-02-05T12:00:00Z,30.2513,-88.0778,-1.72,9.57,2 
DISL,ioos:station:DISL:DISL:1,2015-02-05T12:30:00Z,30.2513,-88.0778,-1.72,9.42,2 
DISL,ioos:station:DISL:DISL:1,2015-02-05T13:00:00Z,30.2513,-88.0778,-1.72,9.76,2 
DISL,ioos:station:DISL:DISL:1,2015-02-05T13:30:00Z,30.2513,-88.0778,-1.72,9.82,2 
DISL,ioos:station:DISL:DISL:1,2015-02-05T14:00:00Z,30.2513,-88.0778,-1.72,9.83,2 
DISL,ioos:station:DISL:DISL:1,2015-02-05T14:30:00Z,30.2513,-88.0778,-1.72,9.89,2 
DISL,ioos:station:DISL:DISL:1,2015-02-05T15:00:00Z,30.2513,-88.0778,-1.72,9.93,2 
DISL,ioos:station:DISL:DISL:1,2015-02-05T15:30:00Z,30.2513,-88.0778,-1.72,9.87,2 
DISL,ioos:station:DISL:DISL:1,2015-02-05T16:00:00Z,30.2513,-88.0778,-1.72,9.41,2 
DISL,ioos:station:DISL:DISL:1,2015-02-05T16:30:00Z,30.2513,-88.0778,-1.72,9.66,2 
DISL,ioos:station:DISL:DISL:1,2015-02-05T17:00:00Z,30.2513,-88.0778,-1.72,9.91,2 
DISL,ioos:station:DISL:DISL:1,2015-02-05T17:30:00Z,30.2513,-88.0778,-1.72,10.11,2 
DISL,ioos:station:DISL:DISL:1,2015-02-05T18:00:00Z,30.2513,-88.0778,-1.72,10.66,2 
DISL,ioos:station:DISL:DISL:1,2015-02-05T18:30:00Z,30.2513,-88.0778,-1.72,10.88,2 
DISL,ioos:station:DISL:DISL:1,2015-02-05T19:00:00Z,30.2513,-88.0778,-1.72,10.96,2 
DISL,ioos:station:DISL:DISL:1,2015-02-05T19:30:00Z,30.2513,-88.0778,-1.72,10.67,2 
DISL,ioos:station:DISL:DISL:1,2015-02-05T20:00:00Z,30.2513,-88.0778,-1.72,10.76,2 
DISL,ioos:station:DISL:DISL:1,2015-02-05T20:30:00Z,30.2513,-88.0778,-1.72,10.8,2 
DISL,ioos:station:DISL:DISL:1,2015-02-05T21:00:00Z,30.2513,-88.0778,-1.72,10.85,2 
DISL,ioos:station:DISL:DISL:1,2015-02-05T21:30:00Z,30.2513,-88.0778,-1.72,10.95,2 
DISL,ioos:station:DISL:DISL:1,2015-02-05T22:00:00Z,30.2513,-88.0778,-1.72,11.42,2 
DISL,ioos:station:DISL:DISL:1,2015-02-05T22:30:00Z,30.2513,-88.0778,-1.72,11.42,2 
DISL,ioos:station:DISL:DISL:1,2015-02-05T23:00:00Z,30.2513,-88.0778,-1.72,11.41,2 
DISL,ioos:station:DISL:DISL:1,2015-02-05T23:30:00Z,30.2513,-88.0778,-1.72,11.45,2 
DISL,ioos:station:DISL:DISL:1,2015-02-06T00:00:00Z,30.2513,-88.0778,-1.72,11.55,2 
DISL,ioos:station:DISL:DISL:1,2015-02-06T00:30:00Z,30.2513,-88.0778,-1.72,11.27,2 
DISL,ioos:station:DISL:DISL:1,2015-02-06T01:00:00Z,30.2513,-88.0778,-1.72,11.23,2 
DISL,ioos:station:DISL:DISL:1,2015-02-06T01:30:00Z,30.2513,-88.0778,-1.72,11.01,2 
DISL,ioos:station:DISL:DISL:1,2015-02-06T02:00:00Z,30.2513,-88.0778,-1.72,10.97,2 
DISL,ioos:station:DISL:DISL:1,2015-02-06T02:30:00Z,30.2513,-88.0778,-1.72,10.98,2 
DISL,ioos:station:DISL:DISL:1,2015-02-06T03:00:00Z,30.2513,-88.0778,-1.72,11.11,2 
DISL,ioos:station:DISL:DISL:1,2015-02-06T03:30:00Z,30.2513,-88.0778,-1.72,11.0,2 
DISL,ioos:station:DISL:DISL:1,2015-02-06T04:00:00Z,30.2513,-88.0778,-1.72,10.89,2 
DISL,ioos:station:DISL:DISL:1,2015-02-06T04:30:00Z,30.2513,-88.0778,-1.72,10.42,2 
DISL,ioos:station:DISL:DISL:1,2015-02-06T05:00:00Z,30.2513,-88.0778,-1.72,10.1,2 
DISL,ioos:station:DISL:DISL:1,2015-02-06T05:30:00Z,30.2513,-88.0778,-1.72,9.93,2 
DISL,ioos:station:DISL:DISL:1,2015-02-06T06:00:00Z,30.2513,-88.0778,-1.72,10.11,2 
DISL,ioos:station:DISL:DISL:1,2015-02-06T06:30:00Z,30.2513,-88.0778,-1.72,10.15,2 
DISL,ioos:station:DISL:DISL:1,2015-02-06T07:00:00Z,30.2513,-88.0778,-1.72,10.11,2 
DISL,ioos:station:DISL:DISL:1,2015-02-06T07:30:00Z,30.2513,-88.0778,-1.72,9.94,2 
DISL,ioos:station:DISL:DISL:1,2015-02-06T08:00:00Z,30.2513,-88.0778,-1.72,9.82,2 
DISL,ioos:station:DISL:DISL:1,2015-02-06T08:30:00Z,30.2513,-88.0778,-1.72,9.42,2 
DISL,ioos:station:DISL:DISL:1,2015-02-06T09:00:00Z,30.2513,-88.0778,-1.72,9.01,2 
DISL,ioos:station:DISL:DISL:1,2015-02-06T09:30:00Z,30.2513,-88.0778,-1.72,8.98,2 
DISL,ioos:station:DISL:DISL:1,2015-02-06T10:00:00Z,30.2513,-88.0778,-1.72,9.12,2 
DISL,ioos:station:DISL:DISL:1,2015-02-06T10:30:00Z,30.2513,-88.0778,-1.72,9.29,2 
DISL,ioos:station:DISL:DISL:1,2015-02-06T11:00:00Z,30.2513,-88.0778,-1.72,8.81,2 
DISL,ioos:station:DISL:DISL:1,2015-02-06T11:30:00Z,30.2513,-88.0778,-1.72,9.22,2 
DISL,ioos:station:DISL:DISL:1,2015-02-06T12:00:00Z,30.2513,-88.0778,-1.72,9.31,2 
DISL,ioos:station:DISL:DISL:1,2015-02-06T12:30:00Z,30.2513,-88.0778,-1.72,9.36,2 
DISL,ioos:station:DISL:DISL:1,2015-02-06T13:00:00Z,30.2513,-88.0778,-1.72,9.45,2 
DISL,ioos:station:DISL:DISL:1,2015-02-06T13:30:00Z,30.2513,-88.0778,-1.72,9.44,2 
DISL,ioos:station:DISL:DISL:1,2015-02-06T14:00:00Z,30.2513,-88.0778,-1.72,9.68,2 
DISL,ioos:station:DISL:DISL:1,2015-02-06T14:30:00Z,30.2513,-88.0778,-1.72,9.65,2 
DISL,ioos:station:DISL:DISL:1,2015-02-06T15:00:00Z,30.2513,-88.0778,-1.72,9.71,2 
DISL,ioos:station:DISL:DISL:1,2015-02-06T15:30:00Z,30.2513,-88.0778,-1.72,9.84,2 
DISL,ioos:station:DISL:DISL:1,2015-02-06T16:00:00Z,30.2513,-88.0778,-1.72,9.89,2 
DISL,ioos:station:DISL:DISL:1,2015-02-06T16:30:00Z,30.2513,-88.0778,-1.72,10.03,2 
DISL,ioos:station:DISL:DISL:1,2015-02-06T17:00:00Z,30.2513,-88.0778,-1.72,10.05,2 
DISL,ioos:station:DISL:DISL:1,2015-02-06T17:30:00Z,30.2513,-88.0778,-1.72,10.07,2 
DISL,ioos:station:DISL:DISL:1,2015-02-06T18:00:00Z,30.2513,-88.0778,-1.72,10.19,2 
DISL,ioos:station:DISL:DISL:1,2015-02-06T18:30:00Z,30.2513,-88.0778,-1.72,10.46,2 
DISL,ioos:station:DISL:DISL:1,2015-02-06T19:00:00Z,30.2513,-88.0778,-1.72,10.52,2 
DISL,ioos:station:DISL:DISL:1,2015-02-06T19:30:00Z,30.2513,-88.0778,-1.72,10.57,2 
DISL,ioos:station:DISL:DISL:1,2015-02-06T20:00:00Z,30.2513,-88.0778,-1.72,10.69,2 
DISL,ioos:station:DISL:DISL:1,2015-02-06T20:30:00Z,30.2513,-88.0778,-1.72,10.63,2 
DISL,ioos:station:DISL:DISL:1,2015-02-06T21:00:00Z,30.2513,-88.0778,-1.72,10.7,2 
DISL,ioos:station:DISL:DISL:1,2015-02-06T21:30:00Z,30.2513,-88.0778,-1.72,10.85,2 
DISL,ioos:station:DISL:DISL:1,2015-02-06T22:00:00Z,30.2513,-88.0778,-1.72,11.12,2 
DISL,ioos:station:DISL:DISL:1,2015-02-06T22:30:00Z,30.2513,-88.0778,-1.72,11.28,2 
DISL,ioos:station:DISL:DISL:1,2015-02-06T23:00:00Z,30.2513,-88.0778,-1.72,11.21,2 
DISL,ioos:station:DISL:DISL:1,2015-02-06T23:30:00Z,30.2513,-88.0778,-1.72,11.2,2 
DISL,ioos:station:DISL:DISL:1,2015-02-07T00:00:00Z,30.2513,-88.0778,-1.72,11.27,2 